www.pogodaiklimat.ru

Погода и климат >> Архив погоды >> Россия >> Крым >> Почтовое


ПОГОДА в Почтовом

  • Прогноз погоды в Почтовом
  • Монитор погоды в Почтовом

АРХИВ ПОГОДЫ в Почтовом

Время (UTC), дата Ветер
(напр.,м/с)
 
Видим.   Явления Облачность Т
(С)
Тd
(С)
f
(%)
Тe
(С)
Тes
(С)
Комфортность P
(гПа)
Po
(гПа)
Тmin
(С)
Tmax
(С)
R
(мм)
R24
(мм)
S
(см)
06 17.02 Ю 1 10 км 10/10 600 м
[St]
+3.6 +1.0 83 +2 +2 1025.1 1003.1 +2.5
09 17.02 Ю 3 10 км 10/10 600 м
[St]
+7.0 +2.9 75 +4 +4 1025.0 1003.3
12 17.02 ЮЗ 4 10 км 4/4 600 м
[St]
+10.3 +3.7 64 +8 +10 1022.6 1001.2
15 17.02 ЮЗ 3 4000 м 3/3 600 м
[St]
+7.4 +4.2 80 +5 +5 1021.7 1000.1
18 17.02 ЮЗ 2 4000 м дымка 3/3 300 м
[St]
+5.4 +4.5 94 +3 +3 1021.3 999.6 +10.6
21 17.02 Ю 1 4000 м дымка 3/3 300 м
[St]
+3.3 +2.6 95 +2 +2 1021.0 999.1
00 18.02 штиль 0 4000 м дымка 3/3 600 м
[St]
+4.2 +3.7 97 +3 +3 1019.8 998.0
03 18.02 В 1 4000 м дымка 10/10 300 м
[St]
+1.0 +0.5 96 -1 -1 1019.2 997.2 +0.5
06 18.02 штиль 0 1000 м в посл. час туман 10/10 600 м
[Sc]
+1.7 +1.4 98 0 0 1020.4 998.4 +0.5 0.1
09 18.02 С 1 10 км 9/9 600 м
[Sc]
+5.2 +2.0 80 +4 +5 1021.2 999.5
12 18.02 СЗ 3 10 км 5/3 600 м
[Cu med, cong Ci fib]
+8.9 -2.8 44 +7 +9 1020.2 998.7
15 18.02 С 1 20 км ясно +7.4 -5.5 39 +7 +7 1021.1 999.5 0.1
18 18.02 штиль 0 20 км ясно +1.4 -1.8 79 0 0 1023.4 1001.3 +9.2
21 18.02 В 2 20 км ясно -1.9 -5.2 78 -6 -6 1024.7 1002.3
00 19.02 штиль 0 20 км ясно -2.7 -5.4 82 -4 -4 1025.4 1002.9
03 19.02 штиль 0 20 км ясно -3.9 -5.7 87 -5 -5 1025.7 1003.1 -3.9
06 19.02 штиль 0 50 км ясно -2.5 -5.1 82 -4 -2 1026.8 1004.3 -4.2
09 19.02 Ю 1 50 км ясно +6.9 -9.2 31 +7 +15 1026.5 1004.7
12 19.02 З 3 50 км ясно +8.4 -11.8 23 +7 +11 1025.3 1003.7
15 19.02 З 3 20 км ясно +5.9 -6.7 40 +3 +3 1025.4 1003.6
18 19.02 В 1 20 км ясно -0.3 -3.7 78 -2 -2 1025.7 1003.4 +8.8
21 19.02 В 2 20 км ясно -1.3 -4.3 80 -5 -5 1024.8 1002.4
00 20.02 В 1 20 км ясно -3.3 -4.8 89 -6 -6 1023.9 1001.4
03 20.02 В 1 20 км ясно -4.1 -5.3 91 -7 -7 1022.6 1000.1 -4.1
06 20.02 В 1 20 км 1/0
[Ac cast]
-2.4 -5.0 82 -5 -3 1021.7 999.3 -4.1
09 20.02 З 1 20 км 1/0
[Ac lent]
+6.9 -2.7 50 +7 +14 1020.0 998.4
12 20.02 ЮЗ 3 20 км 3/0
[Ci fib]
+11.0 -7.9 26 +10 +13 1017.3 996.0
15 20.02 Ю 3 20 км ясно +8.7 -2.6 45 +7 +7 1016.9 995.5
18 20.02 В 1 20 км ясно +2.5 -1.7 74 +1 +1 1017.8 995.9 +11.6
21 20.02 В 2 20 км 9/6 600 м
[Sc Ci fib]
0.0 -2.4 84 -4 -4 1018.4 996.3
00 21.02 В 2 20 км 9/9 600 м
[Sc]
+3.9 +1.1 82 +1 +1 1018.0 996.2
03 21.02 СЗ 1 4000 м дымка 10/10 300 м
[St]
+3.0 +1.5 90 +1 +1 1019.1 997.2 -0.1
06 21.02 ЮЗ 1 1000 м дымка 10/10 300 м
[St]
+2.9 +1.9 93 +1 +1 1021.0 999.1 -0.1
09 21.02 ЮЗ 4 20 км 4/4 600 м
[Sc]
+8.8 +2.2 63 +6 +9 1020.3 998.8
12 21.02 В 5
{11}
20 км {туман} 8/8 600 м
[Sc Ci sp]
+7.9 -0.3 56 +5 +5 1019.8 998.3
15 21.02 ЮЗ 3 20 км 8/4 600 м
[Sc Ci fib]
+5.7 -1.9 58 +3 +3 1020.7 999.0
18 21.02 ЮЗ 2 20 км 10/10 600 м
[Sc]
+4.5 0.0 73 +2 +2 1021.4 999.6 +10.0
21 21.02 штиль 0 20 км 10/10 600 м
[Sc]
+3.9 -0.1 75 +3 +3 1020.8 999.0
00 22.02 штиль 0 20 км 10/10 600 м
[Sc]
+3.4 +0.2 80 +2 +2 1020.3 998.4
03 22.02 ЮЗ 2 20 км 10/10 600 м
[Sc]
+4.0 +0.9 80 +1 +1 1018.6 998.6 +3.4
06 22.02 Ю 1 10 км в посл. час ливневой дождь 10/10 600 м
[Cb calv]
+5.1 +3.2 88 +4 +4 1017.4 995.7 +3.4 0.3
09 22.02 Ю 3 10 км в посл. час ливневой дождь 10/8 600 м
[Cb calv Ac As]
+7.2 +4.4 82 +4 +5 1015.6 994.1
12 22.02 З 2 10 км слаб. ливневой дождь 10/10 600 м
[Cb cap]
+5.1 +3.9 92 +2 +2 1014.3 992.7
15 22.02 ЮВ 1 10 км слаб. ливневой дождь 10/8 600 м
[Cb cap Ac As]
+4.6 +3.6 93 +3 +3 1013.8 992.2 8
18 22.02 СВ 1 10 км слаб. ливневой дождь 10/10 600 м
[Cb cap]
+3.1 +2.3 94 +1 +1 1014.7 992.9 +7.6 12
21 22.02 СВ 4
{10}
4000 м ливневой снег 10/10 600 м
[Cb cap]
-1.7 -2.3 96 -8 -8 1017.3 995.1
00 23.02 СВ 5
{11}
4000 м ливневой снег 10/10 600 м
[Cb cap]
-3.1 -4.8 88 -10 -10 1019.2 996.8
03 23.02 СВ 6
{11}
4000 м ливневой снег 10/10 600 м
[Cb cap]
-3.6 -5.4 87 -11 -11 1021.0 998.5 -1.7 9
06 23.02 СВ 6
{12}
4000 м слаб. ливневой снег 10/10 600 м
[Cb cap]
-4.7 -6.4 88 -12 -12 1024.7 1002.1 -4.7 6 5
09 23.02 СВ 6
{12}
20 км {ливн. осадки} 9/6 600 м
[Sc Ac trans]
-4.0 -7.0 80 -11 -11 1027.2 1004.6
12 23.02 СВ 5 20 км 9/5 300 м
[St Ac trans]
-3.6 -7.2 76 -10 -10 1029.0 1006.4
18 23.02 СВ 4 20 км 10/10 600 м
[Sc]
-5.0 -7.5 83 -11 -11 1032.9 1010.1 -3.4 0.0

 

Местоположение метеостанции Почтовое (Крым, Россия): широта 44.83 долгота 33.95 высота над уровнем моря 176 м.

В архиве по умолчанию представлена погода в Почтовом за последнюю неделю. Архивные данные за месяц целиком и за предыдущие месяцы, начиная с января 2011 года, Вы можете получить, выбрав интересующий диапазон дат из раскрывающегося списка и нажав кнопку "Ввод!".


*Определитесь, кто Вы:
робот инопланетянин человек

Внимание! Время в таблицах - всемирное. Для получения местного времени необходимо прибавить поправку, которая равна 3 ч.

Смотрите также архив погоды в соседних городах и на ближайших метеорологических станциях:

Погода в Симферополе город (Крым, Россия) (19 км)
Погода в Симферополе (Крым, Россия) (22 км)
Погода на Ангарском Перевале (Крым, Россия) (33 км)
Погода в Алуште (Крым, Россия) (40 км)
Погода в Севастополе (город Севастополь, Россия) (41 км)
Погода на Ай-Петри (Крым, Россия) (41 км)
Погода в Никитском саду (Крым, Россия) (42 км)
Погода в Ялте (Крым, Россия) (43 км)
Погода в Херсонесском Маяке (город Севастополь, Россия) (53 км)
Погода в Белогорске (Крым, Россия) (57 км)

Пояснения к столбцам:

Ветер - указаны скорость ветра в м/с - средняя за 10 мин, порывы в срок и между сроками (в фигурных скобках) и направление, откуда дует ветер: С - северный, СВ - северо-восточный, В - восточный, ЮВ - юго-восточный, Ю - южный, ЮЗ - юго-западный, З - западный, СЗ - северо-западный.
Видимость - горизонтальная дальность видимости в метрах или километрах. При видимости от 1 до 10 км при отсутствии осадков обычно наблюдается дымка, при ухудшении видимости до 1 км и менее - туман. В сухую погоду видимость может ухудшаться дымом, пылью или мглою.
Явления - указаны атмосферные явления, наблюдавшиеся в срок или в последний час перед сроком; фигурными скобками обозначены явления, наблюдавшиеся между сроками (за 1-3 часа до срока); квадратными скобками обозначены град или гололедные отложения с указанием их диаметра в мм.
Облачность - указаны через наклонную черту общая и нижняя облачность в баллах и высота нижней границы облаков в метрах; квадратными скобками обозначены формы облаков: Ci - перистые, Cs - перисто-слоистые, Cc - перисто-кучевые, Ac - высококучевые, As - высокослоистые, Sc - слоисто-кучевые, Ns - слоисто-дождевые, Cu - кучевые, Cb - кучево-дождевые. Подробнее классификацию облаков см. в Атласе облаков (PDF).
T - Температура воздуха - температура, измеренная на высоте 2 м над землей.
Td - Температура точки росы - температура, при понижении до которой содержащийся в воздухе водяной пар достигнет насыщения.
f - Относительная влажность воздуха - влажноcть воздуха, измеренная на высоте 2 м над землей.
Te - Эффективная температура - температура, которую ощущает одетый по сезону человек в тени. Характеристика душности погоды. При расчете учитывается влияние влажности воздуха и скорости ветра на теплоощущения человека.
Tes - Эффективная температура на солнце - температура, которую ощущает человек, с поправкой на солнечный нагрев. Характеристика знойности погоды. Зависит от высоты солнца над горизонтом, облачности и скорости ветра. Ночью, в пасмурную погоду, а также при ветре 12 м/с и более поправка равна нулю.
P - Атмосферное давление - приведенное к уровню моря атмосферное давление.
Po - Атмосферное давление - измеренное на уровне метеостанции атмосферное давление.
Tmin - Минимальная температура - минимум температуры воздуха на высоте 2 м над землей.
Tmax - Максимальная температура - максимум температуры воздуха на высоте 2 м над землей.
R - Количество осадков - Количество выпавших осадков за период времени, мм. При наведении курсора мыши на число - период времени, за который выпало указанное количество осадков.
R24 - Количество осадков - Количество выпавших осадков за 24 часа, мм.
S - Снежный покров - Высота снежного покрова, см. При наведении курсора мыши на число - состояние снежного покрова и степень покрытия местности в баллах.